Home > Weather > Enschede > Past weeks

Flag for Netherlands Past Weather in Enschede, Netherlands — Yesterday and Last 2 Weeks

Now
66 °F

Broken clouds.


Feels Like: 66 °F
Forecast: 53 / 65 °F
Wind: 6 mph from Northwest

Location: Deelen

Current Time: Jun 25, 2016 at 2:24:26 PM

Latest Report: Jun 25, 2016 at 1:55 PM


Visibility: N/A

Pressure: 29.98 "Hg

Humidity: 73%

Dew Point: 57 °F

Location of EnschedeLocation

Past Weather in Enschede — Graph

°F

Enschede Temperature Yesterday

Maximum temperature yesterday: 73 °F (at 1:25 PM)
Minimum temperature yesterday: 59 °F (at 11:55 PM)
Average temperature yesterday: 69 °F

High & Low Weather Summary for the Past Weeks

 TemperatureHumidityPressure
High86 °F (Jun 23, 5:25 PM)100% (Jun 12, 9:55 PM)30.24 "Hg (Jun 12, 9:55 PM)
Low50 °F (Jun 16, 5:55 AM)44% (Jun 10, 2:25 PM)29.45 "Hg (Jun 14, 4:55 PM)
Average62 °F82%29.86 "Hg
* Reported Jun 10 12:25 PM — Jun 25 12:55 PM, Enschede, Weather by CustomWeather, © 2016

Note: Actual official high and low records may vary slightly from our data, if they occured in-between our weather recording intervals... More about our weather records

Advertising

Enschede Weather History for the Previous 24 Hours

Scroll right to see more
 ConditionsComfort  
Time TempWeatherWind HumidityBarometerVisibility
12:55 PM
Sat, Jun 25
66 °FPartly sunny.5 mph73%29.98 "HgN/A
12:25 PM66 °FPassing clouds.5 mph68%29.98 "HgN/A
11:55 AM64 °FCloudy.5 mph73%29.98 "HgN/A
11:25 AM64 °FPartly sunny.6 mph78%29.98 "HgN/A
10:55 AM64 °FPartly sunny.6 mph78%29.98 "HgN/A
10:25 AM63 °FPartly sunny.7 mph83%29.98 "HgN/A
9:55 AM63 °FPartly sunny.6 mph83%29.98 "HgN/A
9:25 AM61 °FPartly sunny.6 mph88%29.98 "HgN/A
8:55 AM61 °FFog.3 mph83%30.01 "Hg5 mi
8:25 AM59 °FFog.2 mph88%30.01 "Hg4 mi
7:55 AM57 °FFog.2 mph94%30.01 "Hg3 mi
7:25 AM57 °FFog.3 mph94%30.01 "Hg2 mi
6:55 AM55 °FFog.2 mph100%30.01 "Hg3 mi
6:25 AM55 °FFog.1 mph100%30.01 "Hg4 mi
5:55 AM55 °FFog.2 mph94%30.01 "Hg3 mi
5:25 AM55 °FFog.2 mph94%30.01 "Hg6 mi
4:55 AM55 °FFog.1 mph100%30.01 "Hg6 mi
4:25 AM57 °FFog.2 mph94%30.01 "Hg6 mi
3:55 AM57 °FFog.3 mph94%30.04 "Hg5 mi
3:25 AM57 °FFog.2 mph94%30.04 "Hg4 mi
2:55 AM57 °FFog.1 mph94%30.04 "Hg5 mi
2:25 AM57 °FFog.1 mph94%30.04 "Hg6 mi
1:55 AM55 °FOvercast.1 mph100%30.07 "HgN/A
1:25 AM57 °FCool.1 mph94%30.07 "HgN/A
12:55 AM57 °FFog.2 mph94%30.07 "Hg6 mi
12:25 AM59 °FPassing clouds.1 mph94%30.07 "HgN/A
11:55 PM
Fri, Jun 24
59 °FPassing clouds.2 mph94%30.07 "HgN/A
11:25 PM61 °FPassing clouds.2 mph88%30.07 "HgN/A
10:55 PM63 °FMild.5 mph83%30.07 "HgN/A
10:25 PM64 °FMild.5 mph83%30.07 "HgN/A
9:55 PM66 °FScattered clouds.7 mph78%30.07 "HgN/A
9:25 PM68 °FMostly cloudy.5 mph78%30.07 "HgN/A
8:55 PM70 °FMore clouds than sun.6 mph73%30.07 "HgN/A
8:25 PM70 °FCloudy.5 mph73%30.07 "HgN/A
7:55 PM72 °FBroken clouds.7 mph65%30.04 "HgN/A
7:25 PM72 °FBroken clouds.6 mph73%30.04 "HgN/A
6:55 PM73 °FCloudy.3 mph69%30.04 "HgN/A
6:25 PM72 °FPartly sunny.6 mph73%30.04 "HgN/A
5:55 PM72 °FBroken clouds.6 mph73%30.04 "HgN/A
5:25 PM72 °FCloudy.6 mph69%30.04 "HgN/A
4:55 PM72 °FPartly sunny.7 mph73%30.07 "HgN/A
4:25 PM73 °FBroken clouds.5 mph69%30.07 "HgN/A
3:55 PM72 °FBroken clouds.7 mph69%30.07 "HgN/A
3:25 PM73 °FBroken clouds.7 mph69%30.07 "HgN/A
2:55 PM72 °FBroken clouds.9 mph73%30.04 "HgN/A
2:25 PM72 °FPartly sunny.9 mph73%30.07 "HgN/A
Weather by CustomWeather, © 2016

See weather overviewHow to use our weather pages